UAL9345 KEWR-KDCA

Flight info

Callsign UAL9345
Flight time 0h 51m
Altitude 28000
Route BIGGY Q75 MXE CLIPR3
Aircraft B739/M-SDE2E3FGHIRWXY/LB1

Departure

Time 2026-05-06 01:49
Airport Newark Liberty International Airport (KEWR)

Arrival

Time 2026-05-06 02:40
Airport Ronald Reagan Washington National Airport (KDCA)
Time Latitude Longitude Altitude Speed Heading
2026-05-06 01:17 40.68297 -74.18269 19 ft 0 kts 345°
2026-05-06 01:36 40.68291 -74.18267 19 ft 2 kts 345°
2026-05-06 01:36 40.68276 -74.18263 19 ft 2 kts 346°
2026-05-06 01:36 40.68262 -74.18257 19 ft 2 kts 345°
2026-05-06 01:36 40.68247 -74.18255 19 ft 2 kts
2026-05-06 01:37 40.68232 -74.18258 19 ft 2 kts 17°
2026-05-06 01:37 40.68219 -74.18266 19 ft 2 kts 32°
2026-05-06 01:37 40.68207 -74.18278 19 ft 2 kts 47°
2026-05-06 01:37 40.68198 -74.18295 19 ft 2 kts 62°
2026-05-06 01:38 40.68192 -74.18312 19 ft 2 kts 76°
2026-05-06 01:38 40.68190 -74.18331 19 ft 1 kts 90°
2026-05-06 01:38 40.68191 -74.18340 19 ft 1 kts 95°
2026-05-06 01:38 40.68191 -74.18341 19 ft 0 kts 94°
2026-05-06 01:41 40.68189 -74.18288 19 ft 10 kts 94°
2026-05-06 01:42 40.68184 -74.18199 19 ft 9 kts 94°
2026-05-06 01:42 40.68180 -74.18137 19 ft 8 kts 95°
2026-05-06 01:42 40.68175 -74.18054 19 ft 11 kts 94°
2026-05-06 01:42 40.68138 -74.17954 19 ft 12 kts 136°
2026-05-06 01:43 40.68076 -74.17877 19 ft 12 kts 127°
2026-05-06 01:43 40.68068 -74.17779 19 ft 11 kts 50°
2026-05-06 01:43 40.68147 -74.17720 19 ft 17 kts 25°
2026-05-06 01:43 40.68301 -74.17623 19 ft 28 kts 26°
2026-05-06 01:44 40.68478 -74.17512 18 ft 27 kts 26°
2026-05-06 01:44 40.68649 -74.17403 18 ft 26 kts 25°
2026-05-06 01:44 40.68816 -74.17297 18 ft 26 kts 26°
2026-05-06 01:44 40.68980 -74.17194 18 ft 27 kts 26°
2026-05-06 01:45 40.69158 -74.17082 18 ft 28 kts 26°
2026-05-06 01:45 40.69331 -74.16972 18 ft 27 kts 25°
2026-05-06 01:45 40.69498 -74.16867 18 ft 26 kts 26°
2026-05-06 01:45 40.69659 -74.16763 18 ft 25 kts 26°
2026-05-06 01:46 40.69817 -74.16663 18 ft 23 kts 26°
2026-05-06 01:46 40.69913 -74.16605 18 ft 12 kts 27°
2026-05-06 01:46 40.69985 -74.16554 18 ft 11 kts 27°
2026-05-06 01:46 40.70051 -74.16509 18 ft 7 kts 35°
2026-05-06 01:47 40.70064 -74.16479 18 ft 0 kts 86°
2026-05-06 01:47 40.70065 -74.16465 18 ft 6 kts 87°
2026-05-06 01:48 40.70033 -74.16382 18 ft 13 kts 168°
2026-05-06 01:48 40.69926 -74.16431 18 ft 30 kts 206°
2026-05-06 01:48 40.69514 -74.16694 18 ft 97 kts 205°
2026-05-06 01:48 40.68727 -74.17193 19 ft 151 kts 206°
2026-05-06 01:49 40.67725 -74.17779 530 ft 156 kts 195°
2026-05-06 01:49 40.66666 -74.17970 1221 ft 156 kts 190°
2026-05-06 01:49 40.65572 -74.18128 1684 ft 164 kts 192°
2026-05-06 01:49 40.64414 -74.18260 2115 ft 173 kts 189°
2026-05-06 01:50 40.63152 -74.18330 2336 ft 186 kts 187°
2026-05-06 01:50 40.61859 -74.18452 2536 ft 188 kts 198°
2026-05-06 01:50 40.60609 -74.19096 2535 ft 198 kts 214°
2026-05-06 01:50 40.59471 -74.20200 2600 ft 207 kts 219°
2026-05-06 01:51 40.58399 -74.21463 2963 ft 211 kts 231°
2026-05-06 01:51 40.57692 -74.23201 3577 ft 224 kts 250°
2026-05-06 01:51 40.57413 -74.25258 4199 ft 235 kts 260°
2026-05-06 01:51 40.57259 -74.27420 4916 ft 239 kts 260°
2026-05-06 01:52 40.57051 -74.29579 5616 ft 243 kts 258°
2026-05-06 01:52 40.56706 -74.31726 6456 ft 240 kts 253°
2026-05-06 01:52 40.56237 -74.33817 7178 ft 243 kts 251°
2026-05-06 01:52 40.55716 -74.35929 7861 ft 247 kts 250°
2026-05-06 01:53 40.55157 -74.38094 8472 ft 253 kts 250°
2026-05-06 01:53 40.54610 -74.40286 9101 ft 259 kts 252°
2026-05-06 01:53 40.54087 -74.42526 9858 ft 259 kts 253°
2026-05-06 01:53 40.53585 -74.44813 10427 ft 266 kts 254°
2026-05-06 01:54 40.53078 -74.47244 10759 ft 282 kts 254°
2026-05-06 01:54 40.52546 -74.49760 11150 ft 296 kts 253°
2026-05-06 01:54 40.51964 -74.52441 11490 ft 311 kts 253°
2026-05-06 01:54 40.51353 -74.55211 12046 ft 319 kts 253°
2026-05-06 01:55 40.50735 -74.57996 12662 ft 324 kts 253°
2026-05-06 01:55 40.50104 -74.60840 13336 ft 328 kts 253°
2026-05-06 01:55 40.49460 -74.63741 14036 ft 331 kts 253°
2026-05-06 01:55 40.48818 -74.66631 14785 ft 334 kts 252°
2026-05-06 01:56 40.48169 -74.69544 15518 ft 336 kts 252°
2026-05-06 01:56 40.47507 -74.72510 16184 ft 340 kts 252°
2026-05-06 01:56 40.46849 -74.75458 16869 ft 343 kts 252°
2026-05-06 01:56 40.46169 -74.78499 17533 ft 346 kts 252°
2026-05-06 01:57 40.45497 -74.81501 18107 ft 350 kts 252°
2026-05-06 01:57 40.44801 -74.84608 18810 ft 352 kts 252°
2026-05-06 01:57 40.44112 -74.87675 19378 ft 357 kts 252°
2026-05-06 01:57 40.43405 -74.90816 19976 ft 359 kts 252°
2026-05-06 01:58 40.42645 -74.93914 20627 ft 359 kts 249°
2026-05-06 01:58 40.41631 -74.96908 21156 ft 362 kts 240°
2026-05-06 01:58 40.40213 -74.99672 21720 ft 365 kts 232°
2026-05-06 01:58 40.38564 -75.02226 21925 ft 371 kts 229°
2026-05-06 01:59 40.36814 -75.04700 21918 ft 369 kts 228°
2026-05-06 01:59 40.35053 -75.07121 21915 ft 368 kts 227°
2026-05-06 01:59 40.33286 -75.09544 21917 ft 369 kts 228°
2026-05-06 01:59 40.31519 -75.11977 21919 ft 366 kts 228°
2026-05-06 02:00 40.29751 -75.14425 21918 ft 368 kts 228°
2026-05-06 02:00 40.28008 -75.16847 21915 ft 366 kts 228°
2026-05-06 02:00 40.26256 -75.19286 21915 ft 367 kts 228°
2026-05-06 02:00 40.24511 -75.21721 21915 ft 368 kts 228°
2026-05-06 02:01 40.22760 -75.24165 21919 ft 368 kts 228°
2026-05-06 02:01 40.21002 -75.26616 21921 ft 369 kts 228°
2026-05-06 02:01 40.19254 -75.29050 21922 ft 368 kts 228°
2026-05-06 02:01 40.17501 -75.31490 21921 ft 368 kts 228°
2026-05-06 02:02 40.15744 -75.33934 21925 ft 368 kts 229°
2026-05-06 02:02 40.13999 -75.36359 21923 ft 368 kts 228°
2026-05-06 02:02 40.12246 -75.38795 21923 ft 369 kts 229°
2026-05-06 02:02 40.10495 -75.41225 21925 ft 370 kts 229°
2026-05-06 02:03 40.08729 -75.43673 21923 ft 367 kts 228°
2026-05-06 02:03 40.06972 -75.46105 21925 ft 366 kts 229°
2026-05-06 02:03 40.05236 -75.48510 21926 ft 366 kts 229°
2026-05-06 02:03 40.03471 -75.50953 21924 ft 370 kts 229°
2026-05-06 02:04 40.01715 -75.53382 21925 ft 367 kts 229°
2026-05-06 02:04 39.99967 -75.55797 21925 ft 367 kts 229°
2026-05-06 02:04 39.98193 -75.58245 21926 ft 370 kts 229°
2026-05-06 02:04 39.96434 -75.60673 21926 ft 369 kts 229°
2026-05-06 02:05 39.94667 -75.63110 21925 ft 369 kts 229°
2026-05-06 02:05 39.92896 -75.65565 21922 ft 370 kts 229°
2026-05-06 02:05 39.91262 -75.68084 21921 ft 367 kts 233°
2026-05-06 02:05 39.89743 -75.70790 21920 ft 367 kts 236°
2026-05-06 02:06 39.88308 -75.73538 21920 ft 368 kts 237°
2026-05-06 02:06 39.86893 -75.76311 21920 ft 367 kts 237°
2026-05-06 02:06 39.85486 -75.79070 21932 ft 365 kts 238°
2026-05-06 02:06 39.84058 -75.81853 21904 ft 367 kts 237°
2026-05-06 02:07 39.82643 -75.84596 21923 ft 367 kts 237°
2026-05-06 02:07 39.81217 -75.87347 21923 ft 365 kts 237°
2026-05-06 02:07 39.79813 -75.90039 21937 ft 348 kts 237°
2026-05-06 02:07 39.78496 -75.92556 21928 ft 332 kts 237°
2026-05-06 02:08 39.77217 -75.94998 21740 ft 322 kts 237°
2026-05-06 02:08 39.75973 -75.97375 21363 ft 318 kts 237°
2026-05-06 02:08 39.74728 -75.99755 20936 ft 316 kts 237°
2026-05-06 02:08 39.73488 -76.02125 20516 ft 318 kts 237°
2026-05-06 02:09 39.72245 -76.04497 20087 ft 320 kts 237°
2026-05-06 02:09 39.71011 -76.06847 19645 ft 318 kts 237°
2026-05-06 02:09 39.69773 -76.09199 19209 ft 315 kts 236°
2026-05-06 02:09 39.68526 -76.11568 18765 ft 313 kts 236°
2026-05-06 02:10 39.67308 -76.13882 18328 ft 311 kts 236°
2026-05-06 02:10 39.66101 -76.16175 17884 ft 309 kts 236°
2026-05-06 02:10 39.64893 -76.18468 17489 ft 305 kts 236°
2026-05-06 02:10 39.63707 -76.20713 17103 ft 302 kts 236°
2026-05-06 02:11 39.62507 -76.22985 16687 ft 303 kts 236°
2026-05-06 02:11 39.61327 -76.25219 16261 ft 304 kts 236°
2026-05-06 02:11 39.60124 -76.27470 15825 ft 304 kts 235°
2026-05-06 02:11 39.58812 -76.29612 15395 ft 302 kts 229°
2026-05-06 02:12 39.57258 -76.31435 14986 ft 300 kts 220°
2026-05-06 02:12 39.55557 -76.33005 14577 ft 299 kts 216°
2026-05-06 02:12 39.53829 -76.34463 14153 ft 297 kts 216°
2026-05-06 02:12 39.52110 -76.35899 13724 ft 294 kts 216°
2026-05-06 02:13 39.50401 -76.37349 13345 ft 292 kts 216°
2026-05-06 02:13 39.48708 -76.38809 12924 ft 291 kts 217°
2026-05-06 02:13 39.47035 -76.40266 12501 ft 291 kts 217°
2026-05-06 02:13 39.45358 -76.41727 12092 ft 288 kts 217°
2026-05-06 02:14 39.43724 -76.43147 11989 ft 283 kts 217°
2026-05-06 02:14 39.42069 -76.44583 11997 ft 290 kts 217°
2026-05-06 02:14 39.40375 -76.46052 11995 ft 289 kts 217°
2026-05-06 02:14 39.38715 -76.47491 11999 ft 290 kts 217°
2026-05-06 02:15 39.37027 -76.48953 12001 ft 290 kts 217°
2026-05-06 02:15 39.35357 -76.50399 11996 ft 291 kts 217°
2026-05-06 02:15 39.33679 -76.51850 11997 ft 289 kts 217°
2026-05-06 02:15 39.32001 -76.53301 11988 ft 289 kts 217°
2026-05-06 02:16 39.30317 -76.54756 11996 ft 289 kts 217°
2026-05-06 02:16 39.28648 -76.56199 11997 ft 290 kts 217°
2026-05-06 02:16 39.26987 -76.57630 11840 ft 285 kts 217°
2026-05-06 02:16 39.25350 -76.59040 11503 ft 285 kts 217°
2026-05-06 02:17 39.23671 -76.60491 11098 ft 290 kts 217°
2026-05-06 02:17 39.22008 -76.61924 10804 ft 286 kts 217°
2026-05-06 02:17 39.20354 -76.63348 10482 ft 284 kts 217°
2026-05-06 02:17 39.18741 -76.64732 10148 ft 275 kts 217°
2026-05-06 02:18 39.17184 -76.66104 9900 ft 264 kts 219°
2026-05-06 02:18 39.15803 -76.67591 9663 ft 258 kts 224°
2026-05-06 02:18 39.14483 -76.69183 9416 ft 257 kts 225°
2026-05-06 02:18 39.13206 -76.70747 9170 ft 254 kts 225°
2026-05-06 02:19 39.11918 -76.72300 8924 ft 253 kts 224°
2026-05-06 02:19 39.10636 -76.73823 8677 ft 250 kts 224°
2026-05-06 02:19 39.09354 -76.75339 8426 ft 249 kts 224°
2026-05-06 02:19 39.08081 -76.76847 8179 ft 248 kts 224°
2026-05-06 02:20 39.05564 -76.79835 7681 ft 244 kts 226°
2026-05-06 02:20 39.04689 -76.81656 7437 ft 243 kts 254°
2026-05-06 02:20 39.04572 -76.83813 7202 ft 243 kts 269°
2026-05-06 02:21 39.04644 -76.85981 6955 ft 243 kts 267°
2026-05-06 02:21 39.04630 -76.88166 6706 ft 241 kts 264°
2026-05-06 02:21 39.04544 -76.90289 6462 ft 238 kts 262°
2026-05-06 02:21 39.04434 -76.92416 6217 ft 238 kts 262°
2026-05-06 02:22 39.04324 -76.94534 5977 ft 239 kts 262°
2026-05-06 02:22 39.04221 -76.96664 5733 ft 237 kts 262°
2026-05-06 02:22 39.04122 -76.98762 5489 ft 237 kts 262°
2026-05-06 02:22 39.04019 -77.00867 5244 ft 233 kts 261°
2026-05-06 02:23 39.03918 -77.02914 5006 ft 229 kts 261°
2026-05-06 02:23 39.03727 -77.04913 4760 ft 220 kts 248°
2026-05-06 02:23 39.02994 -77.06593 4520 ft 213 kts 232°
2026-05-06 02:23 39.02065 -77.08057 4282 ft 205 kts 229°
2026-05-06 02:24 39.01180 -77.09412 3991 ft 195 kts 229°
2026-05-06 02:24 39.00324 -77.10750 3624 ft 188 kts 231°
2026-05-06 02:24 38.99625 -77.12132 3260 ft 180 kts 234°
2026-05-06 02:24 38.98900 -77.13322 2912 ft 162 kts 223°
2026-05-06 02:25 38.98021 -77.14110 2680 ft 147 kts 206°
2026-05-06 02:25 38.97027 -77.14492 2703 ft 155 kts 193°
2026-05-06 02:25 38.95915 -77.14440 2653 ft 168 kts 172°
2026-05-06 02:25 38.94867 -77.13673 2424 ft 179 kts 147°
2026-05-06 02:26 38.93966 -77.12571 2195 ft 179 kts 146°
2026-05-06 02:26 38.93057 -77.11509 1903 ft 171 kts 149°
2026-05-06 02:26 38.92098 -77.10616 1841 ft 167 kts 156°
2026-05-06 02:26 38.91140 -77.09795 1790 ft 171 kts 144°
2026-05-06 02:27 38.90537 -77.08427 1474 ft 185 kts 115°
2026-05-06 02:27 38.90132 -77.06938 1234 ft 163 kts 129°
2026-05-06 02:27 38.89411 -77.05957 936 ft 149 kts 149°
2026-05-06 02:27 38.88584 -77.05177 631 ft 145 kts 148°
2026-05-06 02:28 38.87767 -77.04434 390 ft 143 kts 153°
2026-05-06 02:28 38.86869 -77.03948 175 ft 137 kts 172°
2026-05-06 02:28 38.85897 -77.03850 309 ft 139 kts 178°
2026-05-06 02:28 38.84959 -77.03785 882 ft 142 kts 181°
2026-05-06 02:29 38.83964 -77.03738 1513 ft 146 kts 181°
2026-05-06 02:29 38.82951 -77.03646 2041 ft 155 kts 179°
2026-05-06 02:29 38.81815 -77.03471 2448 ft 174 kts 180°
2026-05-06 02:29 38.80603 -77.03719 2894 ft 182 kts 209°
2026-05-06 02:30 38.79630 -77.04758 3274 ft 188 kts 223°
2026-05-06 02:30 38.78666 -77.05949 3375 ft 191 kts 224°
2026-05-06 02:30 38.77715 -77.07169 3123 ft 191 kts 225°
2026-05-06 02:30 38.76659 -77.08134 3006 ft 186 kts 211°
2026-05-06 02:31 38.75701 -77.09241 3003 ft 189 kts 238°
2026-05-06 02:31 38.75435 -77.10902 3005 ft 204 kts 270°
2026-05-06 02:31 38.76035 -77.12608 3006 ft 221 kts 302°
2026-05-06 02:31 38.77173 -77.14009 3006 ft 228 kts 310°
2026-05-06 02:32 38.78363 -77.15341 3003 ft 226 kts 310°
2026-05-06 02:32 38.79553 -77.16685 3002 ft 228 kts 310°
2026-05-06 02:32 38.80738 -77.18030 3006 ft 228 kts 309°
2026-05-06 02:32 38.81921 -77.19373 3006 ft 227 kts 309°
2026-05-06 02:33 38.83117 -77.20732 3004 ft 227 kts 309°
2026-05-06 02:33 38.83907 -77.21631 3003 ft 228 kts 309°
2026-05-06 02:34 38.87879 -77.26124 3001 ft 226 kts 309°
2026-05-06 02:34 38.89191 -77.27320 3001 ft 239 kts 328°
2026-05-06 02:34 38.90843 -77.27684 3002 ft 251 kts
2026-05-06 02:34 38.92527 -77.26922 3003 ft 259 kts 35°
2026-05-06 02:35 38.93780 -77.25414 3007 ft 239 kts 50°
2026-05-06 02:35 38.94846 -77.23867 2997 ft 225 kts 50°
2026-05-06 02:35 38.95902 -77.22356 3003 ft 226 kts 51°
2026-05-06 02:35 38.96686 -77.20657 2997 ft 219 kts 80°
2026-05-06 02:36 38.96933 -77.18744 2894 ft 215 kts 92°
2026-05-06 02:36 38.96919 -77.16931 2828 ft 192 kts 110°
2026-05-06 02:36 38.96475 -77.15421 2740 ft 175 kts 134°
2026-05-06 02:36 38.95697 -77.14343 2535 ft 156 kts 153°
2026-05-06 02:37 38.94850 -77.13506 2489 ft 155 kts 152°
2026-05-06 02:37 38.94004 -77.12643 2385 ft 154 kts 152°
2026-05-06 02:37 38.93221 -77.11777 2317 ft 145 kts 150°
2026-05-06 02:37 38.92454 -77.10942 2098 ft 144 kts 150°
2026-05-06 02:38 38.91679 -77.10112 1888 ft 144 kts 150°
2026-05-06 02:38 38.90977 -77.09188 1713 ft 150 kts 136°
2026-05-06 02:38 38.90499 -77.07955 1421 ft 157 kts 122°
2026-05-06 02:38 38.89961 -77.06786 1137 ft 147 kts 139°
2026-05-06 02:39 38.89227 -77.05904 864 ft 145 kts 148°
2026-05-06 02:39 38.88438 -77.05104 568 ft 145 kts 149°
2026-05-06 02:39 38.87588 -77.04393 353 ft 142 kts 155°
2026-05-06 02:39 38.86683 -77.03959 152 ft 139 kts 171°
2026-05-06 02:40 38.85715 -77.03831 29 ft 139 kts 176°
2026-05-06 02:40 38.85003 -77.03761 27 ft 59 kts 175°
2026-05-06 02:40 38.84724 -77.03735 27 ft 34 kts 176°
2026-05-06 02:40 38.84505 -77.03713 27 ft 27 kts 180°
2026-05-06 02:41 38.84394 -77.03770 27 ft 12 kts 251°
2026-05-06 02:41 38.84389 -77.03816 27 ft 0 kts 265°
2026-05-06 02:42 38.84394 -77.03829 26 ft 5 kts 314°
2026-05-06 02:43 38.84448 -77.03847 27 ft 13 kts 355°
2026-05-06 02:43 38.84597 -77.03862 27 ft 25 kts 356°
2026-05-06 02:43 38.84774 -77.03880 27 ft 24 kts 355°
2026-05-06 02:43 38.84943 -77.03896 27 ft 24 kts 356°
2026-05-06 02:44 38.85109 -77.03913 27 ft 23 kts 355°
2026-05-06 02:44 38.85269 -77.03930 27 ft 22 kts 354°
2026-05-06 02:44 38.85339 -77.03978 27 ft 10 kts 279°
2026-05-06 02:44 38.85327 -77.04066 27 ft 9 kts 252°
2026-05-06 02:45 38.85315 -77.04120 27 ft 2 kts 273°
2026-05-06 02:45 38.85330 -77.04139 27 ft 3 kts 335°
2026-05-06 02:45 38.85347 -77.04147 27 ft 2 kts 345°
2026-05-06 02:45 38.85357 -77.04150 27 ft 0 kts 348°